[[{"header":{"parameterUnit":"m.s-1","parameterCategory":1,"la1":30.2991,"la2":30.254,"lo1":-89.0895,"lo2":-89.0444,"dy":0.0017,"dx":0.0017,"nx":28,"ny":28,"refTime":"2024-05-14T03:00:00:Z","depth":0,"parameterNumber":2,"parameterNumberName":"U-component_of_WINDS"},"data":[0,0,0,0,0,0,0,0,0,0,0,0,0,0,0,0,0,0,0,0,0,0,0,0,0,0,0,0,0,0,0,0,0,0,0,0,0,0,0,0,0,0,0,0,0,0,0,0,0,0,0,0,0,0,0,0,0,0,2.6798,2.6799,0,2.6844,2.6845,2.6845,2.6857,2.6857,2.6857,2.6857,2.6904,2.6906,2.6907,0,0,0,0,0,0,0,0,0,0,0,0,0,2.6722,2.6723,2.6798,2.6799,2.6799,2.6844,2.6845,2.6845,2.6857,2.6857,2.6857,2.6856,2.6904,2.6905,2.6907,0,0,0,0,0,0,0,0,0,0,0,0,0,2.676,2.6723,2.6798,2.6811,2.6812,2.6844,2.6845,2.6846,2.6858,2.6857,2.6857,2.6856,2.6903,2.6905,2.6908,2.693,0,0,2.6915,2.6916,0,0,0,0,0,0,0,0,2.6758,2.6763,2.6808,2.681,2.6812,2.6845,2.6835,2.6874,2.6858,2.684,2.6857,2.6856,2.6885,2.6888,2.6898,2.6932,2.6934,2.6915,2.6916,2.6917,2.6918,0,0,0,0,0,0,0,2.6755,2.6761,2.6816,2.6809,2.6811,2.6814,2.6819,2.6843,2.6864,2.6842,2.6843,2.6848,2.6886,2.6896,2.6899,2.6935,2.6915,2.6917,2.6918,2.6919,2.6992,2.6992,0,0,0,0,0,0,2.675,2.6759,2.6815,2.6818,2.6783,2.6816,2.6822,2.6834,2.6864,2.6868,2.6848,2.6848,2.6892,2.6897,2.6901,2.693,2.6917,2.6919,2.6921,2.6991,2.6992,2.6993,0,0,0,0,0,0,2.6748,2.6755,2.6813,2.6788,2.6796,2.6818,2.6832,2.6836,2.6846,2.6869,2.6873,2.6855,2.6892,2.6898,2.6923,2.6932,2.692,2.6922,2.6991,2.6992,2.6992,2.6989,0,0,0,0,0,0,2.6746,2.6754,2.6763,2.6789,2.6797,2.6834,2.6833,2.6837,2.685,2.685,2.6876,2.688,2.6892,2.692,2.6925,2.6935,2.6924,2.699,2.6991,2.6992,2.6988,2.6989,2.699,0,0,0,0,0,2.6743,2.676,2.6763,2.677,2.6808,2.6834,2.6839,2.6853,2.685,2.6859,2.6875,2.6879,2.693,2.6922,2.6929,2.6939,2.6989,2.6991,2.6992,2.6988,2.6989,2.699,0,0,0,0,0,0,2.6734,2.6763,2.6767,2.6792,2.6811,2.6836,2.6848,2.6854,2.6873,2.6873,2.6889,2.6895,2.6919,2.6932,2.6922,2.6964,2.696,2.6963,2.6954,2.6956,2.6957,2.6954,2.6926,0,0,0,0,0,2.6735,2.6753,2.6778,2.6797,2.6807,2.6826,2.6837,2.6846,2.6866,2.6874,2.6891,2.691,2.6931,2.6944,2.6964,2.699,2.6997,2.7001,2.7002,2.7003,2.7005,2.7021,2.7023,2.6997,2.6997,2.6997,0,0,2.6736,2.6755,2.6765,2.6796,2.6811,2.6831,2.6832,2.6852,2.6867,2.6877,2.6903,2.6916,2.6939,2.6965,2.6977,2.6976,2.7014,2.7004,2.7005,2.7007,2.7022,2.7025,2.7027,2.6998,2.6998,2.6997,0,0,2.675,2.6765,2.6784,2.68,2.6823,2.6836,2.684,2.6866,2.6875,2.69,2.6909,2.6927,2.6962,2.6978,2.6991,2.7012,2.7018,2.7018,2.7024,2.704,2.7042,2.7044,2.7052,2.7055,2.702,2.702,2.702,0,2.6749,2.6778,2.6793,2.6813,2.6827,2.6837,2.6857,2.6871,2.69,2.691,2.6908,2.6953,2.6969,2.7,2.7005,2.7015,2.7021,2.7015,2.704,2.7042,2.7044,2.7053,2.7056,2.702,2.702,2.702,2.702,0,2.6777,2.6797,2.681,2.6838,2.6853,2.6873,2.6891,2.6904,2.6912,2.6926,2.6952,2.6972,2.6997,2.7005,2.7012,2.7037,2.7036,2.7037,2.7034,2.7047,2.7055,2.7058,2.702,2.702,2.702,2.702,0,0,2.6785,2.6822,2.6826,2.6839,2.6867,2.6883,2.6904,2.6929,2.6941,2.696,2.6979,2.7009,2.7011,2.7025,2.7035,2.7048,2.7066,2.7048,2.7049,2.7051,2.7095,2.7095,2.7098,2.7069,2.707,2.7071,2.7094,0,2.6802,2.6839,2.6854,2.6884,2.6904,2.6915,2.6934,2.6953,2.6966,2.6985,2.7,2.7021,2.7021,2.703,2.7044,2.706,2.7075,2.7059,2.7087,2.7088,2.7082,2.7102,2.7101,2.7122,2.7097,2.7097,2.7098,0,2.6827,2.6848,2.6881,2.6907,2.6916,2.6932,2.6957,2.6975,2.6997,2.7006,2.7023,2.7032,2.7055,2.7051,2.7083,2.7073,2.7085,2.7095,2.7096,2.71,2.7094,2.7107,2.7129,2.7132,2.7103,2.7102,2.7102,0,2.6831,2.6867,2.6892,2.6903,2.6934,2.6945,2.6959,2.6981,2.6995,2.7017,2.7027,2.7051,2.7064,2.7082,2.7098,2.7093,2.713,2.7126,2.7139,2.7138,2.7146,2.7145,2.7171,2.7153,2.7153,2.7153,2.7153,0,2.6849,2.6869,2.6894,2.6909,2.6932,2.6949,2.6971,2.6986,2.7006,2.7024,2.7035,2.7053,2.7072,2.7093,2.7105,2.7131,2.7137,2.7145,2.7148,2.7145,2.7144,2.7153,2.7152,2.7154,2.7154,2.7154,2.7153,0,2.6857,2.6874,2.6902,2.693,2.6937,2.6953,2.6977,2.6993,2.7007,2.7031,2.7037,2.706,2.7084,2.7102,2.7134,2.7142,2.717,2.7173,2.7163,2.7164,2.7176,2.7175,2.7209,2.7215,2.7192,2.7193,2.7193,0,2.6867,2.6883,2.6913,2.6926,2.694,2.6961,2.6976,2.6994,2.7009,2.7037,2.7049,2.7075,2.7096,2.7135,2.7154,2.7179,2.7183,2.7193,2.7187,2.7183,2.7184,2.7183,2.7185,2.7194,2.7194,2.7195,2.7195,0,2.6884,2.6893,2.6914,2.6939,2.6957,2.6977,2.6997,2.7008,2.7029,2.7046,2.7071,2.7088,2.7121,2.7146,2.7173,2.7187,2.7195,2.7197,2.7201,2.7197,2.7191,2.7195,2.7166,2.7196,2.7196,2.7196,2.7195,2.7195,2.6895,2.691,2.6933,2.6957,2.6974,2.6994,2.701,2.7027,2.7048,2.7077,2.7086,2.7112,2.7136,2.7173,2.7188,2.7209,2.7209,2.7215,2.7217,2.7218,2.7218,2.7187,2.7214,2.7214,2.7214,2.7214,2.7214,0,2.6913,2.6929,2.6951,2.698,2.6999,2.7004,2.7028,2.7043,2.7067,2.7088,2.7109,2.7139,2.7164,2.7186,2.7212,2.7226,2.723,2.7232,2.7231,2.7235,2.7217,2.7211,2.7228,2.7228,2.7228,2.7228,2.7228,2.7228,2.6925,2.6951,2.6963,2.6998,2.7014,2.7041,2.7054,2.7072,2.7089,2.7122,2.7143,2.7157,2.7179,2.7208,2.7231,2.7237,2.7247,2.7248,2.7255,2.7238,2.7236,2.7234,2.7229,2.725,2.725,2.7272,2.7272,2.7272]},{"header":{"parameterUnit":"m.s-1","parameterCategory":1,"la1":30.2991,"la2":30.254,"lo1":-89.0895,"lo2":-89.0444,"dy":0.0017,"dx":0.0017,"nx":28,"ny":28,"refTime":"2024-05-14T03:00:00:Z","depth":0,"parameterNumber":3,"parameterNumberName":"V-component_of_WINDS"},"data":[0,0,0,0,0,0,0,0,0,0,0,0,0,0,0,0,0,0,0,0,0,0,0,0,0,0,0,0,0,0,0,0,0,0,0,0,0,0,0,0,0,0,0,0,0,0,0,0,0,0,0,0,0,0,0,0,0,0,-1.6493,-1.6493,0,-1.6501,-1.6501,-1.6501,-1.6517,-1.6517,-1.6517,-1.6518,-1.6526,-1.6526,-1.6526,0,0,0,0,0,0,0,0,0,0,0,0,0,-1.6494,-1.6494,-1.6493,-1.6493,-1.6493,-1.6501,-1.6501,-1.6501,-1.6517,-1.6517,-1.6517,-1.6518,-1.6526,-1.6526,-1.6526,0,0,0,0,0,0,0,0,0,0,0,0,0,-1.6497,-1.6494,-1.6493,-1.6502,-1.6503,-1.6501,-1.6501,-1.6501,-1.6517,-1.6517,-1.6518,-1.6518,-1.6526,-1.6526,-1.6526,-1.6516,0,0,-1.6526,-1.6525,0,0,0,0,0,0,0,0,-1.6497,-1.6497,-1.6501,-1.6501,-1.6502,-1.6508,-1.6504,-1.6506,-1.6517,-1.6511,-1.6518,-1.6518,-1.652,-1.652,-1.6521,-1.6516,-1.6517,-1.6526,-1.6525,-1.6525,-1.6525,0,0,0,0,0,0,0,-1.6496,-1.6497,-1.6496,-1.6501,-1.6502,-1.6506,-1.6507,-1.6505,-1.6513,-1.6512,-1.6513,-1.6514,-1.652,-1.6521,-1.6521,-1.6517,-1.6526,-1.6525,-1.6525,-1.6525,-1.6507,-1.6507,0,0,0,0,0,0,-1.6495,-1.6496,-1.6496,-1.6496,-1.6501,-1.6506,-1.6507,-1.6506,-1.6513,-1.6514,-1.6513,-1.6514,-1.6521,-1.6521,-1.6521,-1.6512,-1.6525,-1.6525,-1.6525,-1.6508,-1.6507,-1.6507,0,0,0,0,0,0,-1.6495,-1.6495,-1.6496,-1.6497,-1.6497,-1.6505,-1.6504,-1.6506,-1.6506,-1.6514,-1.6516,-1.6512,-1.6521,-1.6521,-1.6518,-1.6512,-1.6525,-1.6525,-1.6508,-1.6507,-1.6507,-1.6491,0,0,0,0,0,0,-1.6495,-1.6494,-1.649,-1.6496,-1.6497,-1.6491,-1.6504,-1.6506,-1.6506,-1.6507,-1.6513,-1.6515,-1.6521,-1.6518,-1.6518,-1.6512,-1.6525,-1.6509,-1.6508,-1.6507,-1.6492,-1.649,-1.6488,0,0,0,0,0,-1.6495,-1.6485,-1.649,-1.6489,-1.6492,-1.6491,-1.6491,-1.6499,-1.6505,-1.6502,-1.6507,-1.6514,-1.6513,-1.6517,-1.6517,-1.6512,-1.6509,-1.6508,-1.6507,-1.6493,-1.649,-1.6488,0,0,0,0,0,0,-1.6477,-1.6486,-1.6491,-1.6483,-1.6486,-1.6493,-1.6488,-1.6495,-1.6497,-1.6498,-1.6508,-1.6509,-1.6504,-1.6508,-1.6512,-1.6504,-1.6512,-1.6511,-1.6501,-1.6499,-1.6497,-1.6496,-1.6525,0,0,0,0,0,-1.6472,-1.647,-1.6478,-1.647,-1.6471,-1.648,-1.6479,-1.6486,-1.6489,-1.649,-1.6495,-1.6499,-1.65,-1.6499,-1.65,-1.6493,-1.6495,-1.6489,-1.6487,-1.6486,-1.6485,-1.6483,-1.6481,-1.6504,-1.6504,-1.6504,0,0,-1.6462,-1.6466,-1.6464,-1.6467,-1.647,-1.6468,-1.648,-1.6478,-1.6477,-1.649,-1.6487,-1.6491,-1.6496,-1.6491,-1.6489,-1.6493,-1.6479,-1.6484,-1.6483,-1.6483,-1.6482,-1.648,-1.6478,-1.6503,-1.6503,-1.6503,0,0,-1.6443,-1.6445,-1.644,-1.6443,-1.6448,-1.6454,-1.6453,-1.646,-1.6463,-1.646,-1.647,-1.647,-1.647,-1.6474,-1.6476,-1.6461,-1.6469,-1.6461,-1.6451,-1.6449,-1.6447,-1.6446,-1.6442,-1.644,-1.646,-1.646,-1.646,0,-1.6429,-1.6427,-1.6436,-1.6434,-1.6435,-1.6447,-1.6443,-1.6446,-1.645,-1.6452,-1.6457,-1.6459,-1.6463,-1.646,-1.6456,-1.6457,-1.6457,-1.646,-1.6447,-1.6445,-1.6444,-1.644,-1.6439,-1.6459,-1.6459,-1.646,-1.646,0,-1.6411,-1.641,-1.6405,-1.641,-1.6411,-1.6407,-1.6417,-1.6417,-1.6424,-1.643,-1.6428,-1.6434,-1.6437,-1.6437,-1.6443,-1.6435,-1.6438,-1.6445,-1.6454,-1.6441,-1.6438,-1.6436,-1.6458,-1.6458,-1.6459,-1.6459,0,0,-1.638,-1.6391,-1.639,-1.6393,-1.64,-1.64,-1.6398,-1.6401,-1.6402,-1.6405,-1.6405,-1.6406,-1.6413,-1.6415,-1.6422,-1.6421,-1.6411,-1.6428,-1.6428,-1.6425,-1.6405,-1.64,-1.6398,-1.6416,-1.6416,-1.6415,-1.6405,0,-1.6363,-1.6359,-1.6369,-1.6363,-1.6363,-1.6376,-1.6375,-1.638,-1.6386,-1.6387,-1.6394,-1.6395,-1.6404,-1.6405,-1.6405,-1.6412,-1.6407,-1.6413,-1.6416,-1.6416,-1.6415,-1.6396,-1.639,-1.638,-1.6403,-1.6403,-1.6403,0,-1.6342,-1.6345,-1.634,-1.635,-1.635,-1.6348,-1.6354,-1.6354,-1.6361,-1.6366,-1.637,-1.6378,-1.6378,-1.6387,-1.6388,-1.6392,-1.6395,-1.6399,-1.6399,-1.6399,-1.6409,-1.6397,-1.6376,-1.6375,-1.6401,-1.6401,-1.6401,0,-1.6321,-1.6324,-1.6322,-1.6324,-1.6335,-1.6334,-1.6339,-1.6346,-1.6348,-1.6353,-1.6355,-1.6359,-1.6362,-1.6366,-1.6376,-1.6382,-1.6377,-1.6386,-1.6382,-1.6382,-1.638,-1.638,-1.636,-1.6381,-1.6381,-1.6381,-1.6381,0,-1.6301,-1.6297,-1.6313,-1.6311,-1.6309,-1.632,-1.6317,-1.6323,-1.633,-1.6331,-1.6343,-1.6344,-1.6357,-1.636,-1.6368,-1.6369,-1.637,-1.6374,-1.6376,-1.6373,-1.6373,-1.6375,-1.6376,-1.638,-1.638,-1.638,-1.6381,0,-1.6276,-1.6286,-1.6285,-1.6296,-1.6299,-1.6297,-1.6307,-1.6307,-1.6314,-1.6316,-1.6317,-1.6329,-1.6333,-1.6344,-1.635,-1.6356,-1.6355,-1.6359,-1.6353,-1.6354,-1.635,-1.635,-1.633,-1.6329,-1.635,-1.635,-1.635,0,-1.6263,-1.6261,-1.6272,-1.6274,-1.6278,-1.628,-1.6283,-1.6295,-1.6298,-1.6307,-1.6306,-1.6311,-1.6316,-1.6323,-1.6332,-1.6338,-1.6343,-1.6336,-1.6344,-1.6341,-1.6344,-1.6344,-1.6345,-1.6334,-1.6333,-1.6333,-1.6333,0,-1.6239,-1.6245,-1.6248,-1.6253,-1.6257,-1.6262,-1.6267,-1.6268,-1.6282,-1.6285,-1.6289,-1.6293,-1.6301,-1.6306,-1.6314,-1.632,-1.6329,-1.6331,-1.633,-1.6327,-1.6324,-1.6327,-1.6348,-1.6331,-1.6331,-1.6331,-1.6331,-1.6331,-1.622,-1.622,-1.6228,-1.6232,-1.6238,-1.6244,-1.6245,-1.6253,-1.6257,-1.6265,-1.6272,-1.6276,-1.6286,-1.6297,-1.6303,-1.6307,-1.6312,-1.631,-1.631,-1.631,-1.6309,-1.6323,-1.6308,-1.6309,-1.6309,-1.6309,-1.6309,0,-1.6198,-1.6204,-1.6208,-1.6216,-1.622,-1.6228,-1.6236,-1.6239,-1.6242,-1.625,-1.6255,-1.6261,-1.6267,-1.6279,-1.6286,-1.6288,-1.6292,-1.6289,-1.6289,-1.6291,-1.6304,-1.6304,-1.6285,-1.6285,-1.6285,-1.6285,-1.6285,-1.6286,-1.6186,-1.6186,-1.6193,-1.6197,-1.6204,-1.6209,-1.6212,-1.6218,-1.6225,-1.6232,-1.6237,-1.6244,-1.6254,-1.6263,-1.6269,-1.6273,-1.6275,-1.6271,-1.6276,-1.6288,-1.629,-1.6292,-1.6292,-1.6271,-1.6271,-1.6262,-1.6262,-1.6262]}]]